Home   Weather   Bern   Past weeks

Flag for Switzerland Past Weather in Bern, Bern, Switzerland — Yesterday and Last 2 Weeks

Now
23 °F

Ice fog.


Feels Like: 23 °F
Forecast: 23 / 46 °F
Wind: 2 mph from North

Location: Bern / Belp

Current Time: Dec 8, 2016 at 9:13:19 am

Latest Report: Dec 8, 2016 at 8:20 am


Visibility: 1 mi

Pressure: 30.60 "Hg (28.59 "Hg at 533m altitude)

Humidity: 100%

Dew Point: 23 °F

Location of BernLocation

Past Weather in Bern — Graph

°F

Bern Temperature Yesterday

Maximum temperature yesterday: 37 °F (at 2:20 pm)
Minimum temperature yesterday: 23 °F (at 8:20 am)
Average temperature yesterday: 28 °F

High & Low Weather Summary for the Past Weeks

 TemperatureHumidityPressure
High50 °F (Nov 23, 2:20 pm)100% (Nov 23, 7:20 am)30.60 "Hg (Nov 23, 7:20 am)
Low19 °F (Dec 1, 7:20 am)53% (Dec 1, 2:20 pm)29.77 "Hg (Nov 25, 4:50 am)
Average34 °F90%30.20 "Hg
* Reported Nov 23 7:20 am — Dec 8 7:50 am, Bern, Weather by CustomWeather, © 2016

Note: Actual official high and low records may vary slightly from our data, if they occured in-between our weather recording intervals... More about our weather records

Advertising

Bern Weather History for the Previous 24 Hours

Scroll right to see more
 ConditionsComfort  
Time TempWeatherWind HumidityBarometerVisibility
7:50 am
Thu, Dec 8
23 °FIce fog.6 mph100%30.60 "Hg1 mi
7:20 am25 °FIce fog.3 mph93%30.60 "Hg1 mi
6:50 am25 °FIce fog.3 mph93%30.60 "Hg0 mi
6:20 am25 °FIce fog.3 mph100%30.60 "Hg0 mi
5:50 am25 °FIce fog.3 mph100%30.60 "Hg0 mi
5:20 am25 °FIce fog.2 mph100%30.60 "Hg1 mi
4:50 am27 °FIce fog.2 mph93%30.60 "Hg1 mi
4:20 am25 °FLight fog.2 mph100%30.60 "Hg1 mi
3:20 am27 °FIce fog.2 mph93%30.57 "Hg0 mi
2:20 am27 °FIce fog.2 mph100%30.57 "Hg0 mi
1:50 am27 °FIce fog.3 mph100%30.57 "Hg0 mi
1:20 am27 °FIce fog.2 mph100%30.57 "Hg0 mi
12:50 am27 °FIce fog.3 mph100%30.57 "Hg0 mi
12:20 am27 °FIce fog.2 mph100%30.57 "Hg0 mi
11:50 pm
Wed, Dec 7
28 °FIce fog.3 mph93%30.60 "Hg1 mi
11:20 pm28 °FIce fog.2 mph100%30.60 "Hg1 mi
10:50 pm28 °FLight fog.3 mph93%30.60 "Hg1 mi
10:20 pm28 °FIce fog.1 mph100%30.60 "Hg0 mi
9:50 pm28 °FIce fog.3 mph100%30.60 "Hg1 mi
9:20 pm28 °FIce fog.5 mph100%30.60 "Hg1 mi
8:50 pm28 °FIce fog.3 mph100%30.60 "Hg1 mi
8:20 pm28 °FIce fog.5 mph100%30.60 "Hg1 mi
7:50 pm28 °FIce fog.3 mph100%30.57 "Hg1 mi
7:20 pm30 °FIce fog.2 mph93%30.57 "Hg1 mi
6:50 pm30 °FIce fog.3 mph93%30.57 "Hg1 mi
6:20 pm30 °FIce fog.6 mph93%30.54 "Hg1 mi
5:50 pm30 °FIce fog.5 mph93%30.54 "Hg1 mi
5:20 pm30 °FIce fog.5 mph93%30.54 "Hg1 mi
4:50 pm32 °FPassing clouds.6 mph93%30.51 "Hg5 mi
4:20 pm34 °FSunny.7 mph87%30.51 "Hg10 mi
3:50 pm37 °FSunny.6 mph81%30.51 "Hg10 mi
3:20 pm37 °FPassing clouds.5 mph81%30.51 "HgN/A
2:50 pm37 °FSunny.2 mph81%30.48 "Hg10 mi
2:20 pm37 °FSunny.2 mph93%30.48 "Hg10 mi
1:50 pm36 °FSunny.2 mph100%30.48 "Hg10 mi
1:20 pm34 °FClear.2 mph93%30.48 "Hg5 mi
12:50 pm32 °FPassing clouds.1 mph93%30.48 "Hg5 mi
12:20 pm28 °FIce fog.1 mph100%30.51 "Hg2 mi
11:50 am27 °FIce fog.1 mph100%30.51 "Hg1 mi
11:20 am25 °FIce fog.2 mph100%30.51 "Hg0 mi
10:50 am25 °FIce fog.1 mph93%30.51 "Hg0 mi
10:20 am25 °FIce fog.1 mph93%30.51 "Hg0 mi
9:50 am25 °FIce fog.1 mph93%30.51 "Hg0 mi
9:20 am23 °FIce fog.2 mph100%30.51 "Hg0 mi
Weather by CustomWeather, © 2016

See weather overviewHow to use our weather pages